PSLV R/B, 40270

Orbit data source: Space-Track

PSLV R/B, 40270 is space debris in HEO originally from a launch on Wed, 15 Oct 2014 UTC launched from the Sirharikota (SRI). Debris objects in space refer to the collection of defunct objects orbiting the Earth. Examples of debris include non-operational satellites, rocket bodies, and fragments generated from explosions, collisions, or faulty payload assembly.

Loading next visibility...
Identifier
40270, 2014-061B
Orbit
HEO
Country
Flag of ININ / IND
Related business
Manufacturer
VSSC/LPSC
Mission
Spacecraft
Bus & Motor
PS-4, Unknown motor
Mass
920 kg wet, 920 kg dry
Launch date (UTC)
2014-10-15 (11 years ago)
Launch vehicle
Unknown
Launch site
Sirharikota (SRI)
Object type
Payload
Rocket body
Debris
Shape & HBR
Cyl + Cyl + 2 Nozzle, 1.5 m
Radar Cross Section
6.283 m², Large (>1 m²)

Expand to show TLE details & history
Last TLE update: 14 hours ago

TLE from 14 hours ago
0 PSLV R/B
1 40270U 14061B   26071.07775550  .00010412  00000-0  12669-2 0  9991
2 40270  17.8401  20.8366 5751753 175.8021 192.8219  4.44212451172658
Epoch: 2026-03-12T01:51Z
TLE epoch observation values (Epoch: 2026-03-12T01:51:58.075Z)
Latitude
0.00001°
Longitude
-176.88728°
Altitude
18,153.709 km
Speed
2.646 km/s
True Right ascension
01h 23m 21s
True Declination
0° 00' 00"
Sunlit
Object was in daylight at epoch
Visualization orbit readout
Latitude
Unknown
Longitude
Unknown
Altitude
Unknown
Speed
Unknown
Apparent Right ascension
Unknown
Apparent Declination
Unknown
Sunlit
N/A
Visualization observer readout
Local Sidereal Time
19:55:26
Azimuth
Unknown
Elevation
Unknown
Doppler factor
Unknown
Orbital elements
Apogee altitude
18,251.616 km
Perigee altitude
264.506 km
Semi-major axis
15,636.198 km
Eccentricity
0.57518
Inclination
17.8401°
RAAN
20.8366°
Arg. of periapsis
175.8021°
True anomaly
184.23773°
Mean anomaly
192.8219°
Eccentric anomaly
188.15001°
Mean motion
1.11006 °/min
Orbital period
324.31 mins
BSTAR
0.0012669
Loading maneuver chart data...
Computing Atmospheric mass density...
Loading historical data...
Loading historical data...
Loading historical data...
Loading historical data...
Loading historical data...
Loading historical data...
Loading historical data...
Other satellites on launch #61 in the year 2014 (2014-10-15 UTC)

Documentation

Showing up to 5 results
|